GW1476 Weather Reports


time (UTC)temp
F
wind
direction
speed
knots
gust
knots
rain 1hr
in
rain 24hr
in
rain mn
in
humidity
%
barometer
mb
20260510082119 48 293 0.0 0.0 0.00 0.00 0.00 99 1015.2
20260510081549 48 270 0.0 0.0 0.00 0.00 0.00 99 1015.2
20260510080918 48 248 0.0 0.0 0.00 0.00 0.00 99 1015.2
20260510080327 49 203 0.0 0.0 0.00 0.00 0.00 99 1015.2
20260510075750 48 248 0.0 0.0 0.00 0.00 0.00 99 1015.2
20260510074542 48 225 0.0 0.0 0.00 0.00 0.00 99 1015.2
20260510073942 48 270 0.0 0.0 0.00 0.00 0.00 99 1014.9
20260510073347 48 293 0.0 0.0 0.00 0.00 0.00 99 1015.2
20260510072734 49 248 0.0 0.0 0.00 0.00 0.00 99 1014.9
20260510072126 49 270 0.0 0.0 0.00 0.00 0.00 99 1014.9
20260510071546 48 293 0.0 0.0 0.00 0.00 0.00 99 1014.9
20260510070925 49 203 0.0 0.0 0.00 0.00 0.00 99 1014.9
20260510070312 49 270 0.0 0.0 0.00 0.00 0.00 99 1014.9
20260510065734 49 315 0.0 0.0 0.00 0.00 0.00 99 1014.9
20260510065141 49 248 0.0 0.0 0.00 0.00 0.00 99 1014.9
20260510063923 49 293 0.0 0.0 0.00 0.00 0.00 99 1014.9
20260510063330 49 315 0.0 0.0 0.00 0.00 0.00 99 1014.9
20260510062709 50 0 0.0 0.0 0.00 0.00 0.00 99 1014.9
20260510062146 50 225 0.0 0.0 0.00 0.00 0.00 99 1014.9
20260510061534 50 270 0.0 0.0 0.00 0.00 0.00 99 1014.9
20260510060949 50 158 1.7 1.7 0.00 0.00 0.00 99 1014.9
20260510060341 50 270 0.0 0.0 0.00 0.00 0.00 99 1014.9
20260510055725 49 338 0.0 0.0 0.00 0.00 0.00 99 1015.2
20260510055118 50 270 0.0 0.0 0.00 0.00 0.00 99 1014.9
20260510054538 50 270 0.0 0.0 0.00 0.00 0.00 99 1015.2
20260510053314 50 315 0.0 0.0 0.00 0.00 0.00 99 1015.2
20260510052149 50 248 0.0 0.0 0.00 0.00 0.00 99 1015.2
20260510051548 50 270 0.0 0.0 0.00 0.00 0.00 99 1015.2
20260510050912 50 248 0.0 0.9 0.00 0.00 0.00 99 1015.2
20260510050332 50 270 0.0 0.0 0.00 0.00 0.00 99 1015.2
20260510045721 50 225 0.0 0.0 0.00 0.00 0.00 99 1015.2
20260510045110 51 248 0.0 0.0 0.00 0.00 0.00 99 1015.2
20260510043931 51 203 0.0 0.0 0.00 0.00 0.00 99 1015.2
20260510043338 51 113 0.0 0.0 0.00 0.00 0.00 99 1015.2
20260510042711 51 203 0.0 0.0 0.00 0.00 0.00 99 1015.2
20260510042145 51 225 0.0 0.0 0.00 0.00 0.00 99 1015.2
20260510041533 52 203 0.0 0.0 0.00 0.00 0.00 99 1015.2
20260510040924 52 270 0.0 0.0 0.00 0.00 0.00 99 1015.2
20260510040343 51 315 0.0 0.0 0.00 0.00 0.00 99 1015.2
20260510035747 52 225 0.0 0.9 0.00 0.00 0.00 99 1015.2
20260510035123 52 225 0.0 0.0 0.00 0.00 0.00 99 1015.2
20260510034541 52 203 0.0 0.0 0.00 0.00 0.00 99 1015.2
20260510033909 52 225 0.0 0.0 0.00 0.00 0.00 99 1015.2
20260510033316 52 225 0.0 0.0 0.00 0.00 0.00 99 1015.2
20260510032752 53 203 0.0 0.9 0.00 0.00 0.00 99 1014.9
20260510032147 53 203 0.0 0.0 0.00 0.00 0.00 99 1014.9
20260510031524 53 225 0.0 0.0 0.00 0.00 0.00 99 1014.9
20260510030919 53 225 0.0 0.0 0.00 0.00 0.00 99 1014.9
20260510030328 53 225 0.0 0.0 0.00 0.00 0.00 99 1014.9
20260510025732 53 225 0.0 0.0 0.00 0.00 0.00 99 1014.5
20260510025122 54 225 0.0 0.0 0.00 0.00 0.00 99 1014.5
20260510023940 54 203 0.0 0.0 0.00 0.00 0.00 99 1014.5
20260510022739 54 225 0.0 0.0 0.00 0.00 0.00 99 1014.2
20260510021510 55 270 0.0 0.0 0.00 0.00 0.00 99 1014.2
20260510020952 55 225 0.0 0.0 0.00 0.00 0.00 99 1013.8
20260510015740 56 248 0.0 0.0 0.00 0.00 0.00 99 1013.8
20260510015143 56 203 0.0 0.0 0.00 0.00 0.00 99 1013.8
20260510014511 57 203 0.0 0.0 0.00 0.00 0.00 99 1013.5
20260510013946 57 203 0.0 0.0 0.00 0.00 0.00 99 1013.5
20260510012725 58 225 0.0 1.7 0.00 0.00 0.00 99 1013.5
20260510012131 58 180 0.9 0.9 0.00 0.00 0.00 99 1013.5
20260510011556 59 203 0.0 0.0 0.00 0.00 0.00 96 1013.2
20260510010951 59 315 0.0 0.9 0.00 0.00 0.00 94 1013.2
20260510010348 59 225 0.0 1.7 0.00 0.00 0.00 95 1013.2
20260510005143 60 203 0.0 0.9 0.00 0.00 0.00 91 1012.8
20260510004550 62 203 0.0 0.0 0.00 0.00 0.00 88 1012.8
20260510003307 63 180 0.0 0.0 0.00 0.00 0.00 85 1012.8
20260510002716 64 315 1.7 1.7 0.00 0.00 0.00 84 1012.8
20260510001511 64 180 2.6 2.6 0.00 0.00 0.00 83 1012.5
20260510000943 66 203 0.9 1.7 0.00 0.00 0.00 79 1012.5
20260510000349 67 225 0.0 1.7 0.00 0.00 0.00 76 1012.5
20260509235710 69 203 0.0 0.9 0.00 0.00 0.00 72 1012.5
20260509235126 70 338 0.9 0.9 0.00 0.00 0.00 67 1012.1
20260509234543 71 23 2.6 2.6 0.00 0.00 0.00 66 1012.1
20260509233949 72 338 0.9 1.7 0.00 0.00 0.00 66 1012.1
20260509233339 72 45 0.9 2.6 0.00 0.00 0.00 65 1012.5
20260509232130 74 270 1.7 1.7 0.00 0.00 0.00 62 1012.1
20260509231509 74 203 0.9 1.7 0.00 0.00 0.00 63 1012.5
20260509230951 74 23 2.6 3.5 0.00 0.00 0.00 62 1012.1
20260509230332 74 113 4.3 4.3 0.00 0.00 0.00 62 1012.1
20260509225146 74 270 1.7 1.7 0.00 0.00 0.00 62 1012.1
20260509224535 74 90 0.9 2.6 0.00 0.00 0.00 62 1012.1
20260509223928 74 315 0.9 3.5 0.00 0.00 0.00 62 1012.1
20260509223343 74 0 2.6 4.3 0.00 0.00 0.00 62 1012.1
20260509222130 72 203 3.5 3.5 0.00 0.00 0.00 64 1012.5
20260509220918 72 45 2.6 4.3 0.00 0.00 0.00 64 1012.5
20260509220326 73 45 0.9 3.5 0.00 0.00 0.00 63 1012.5
20260509215723 74 338 3.5 3.5 0.00 0.00 0.00 62 1012.5
20260509215134 74 270 3.5 3.5 0.00 0.00 0.00 63 1012.5
20260509214520 74 135 3.5 3.5 0.00 0.00 0.00 62 1012.1
20260509213335 72 113 2.6 4.3 0.00 0.00 0.00 65 1012.5
20260509212739 72 225 2.6 2.6 0.00 0.00 0.00 64 1012.5
20260509212145 73 203 3.5 3.5 0.00 0.00 0.00 64 1012.5
20260509211542 72 203 1.7 2.6 0.00 0.00 0.00 65 1012.5
20260509210931 72 293 2.6 2.6 0.00 0.00 0.00 65 1012.5
20260509210318 71 68 2.6 2.6 0.00 0.00 0.00 65 1012.5
20260509205747 72 68 2.6 2.6 0.00 0.00 0.00 64 1012.5
20260509205134 72 23 5.2 6.1 0.00 0.00 0.00 64 1012.5
20260509204537 72 338 4.3 5.2 0.00 0.00 0.00 64 1012.5
20260509203950 72 68 4.3 5.2 0.00 0.00 0.00 64 1012.5
20260509203321 72 270 3.5 3.5 0.00 0.00 0.00 64 1012.1
20260509202753 72 203 2.6 5.2 0.00 0.00 0.00 64 1012.1
20260509202126 72 23 3.5 3.5 0.00 0.00 0.00 63 1012.1
20260509201532 72 338 2.6 3.5 0.00 0.00 0.00 63 1012.1
20260509200939 72 90 2.6 2.6 0.00 0.00 0.00 64 1012.1
20260509200309 71 203 4.3 4.3 0.00 0.00 0.00 65 1012.1
20260509195125 72 248 2.6 4.3 0.00 0.00 0.00 64 1012.1
20260509193915 72 158 1.7 2.6 0.00 0.00 0.00 64 1012.1
20260509193337 72 23 1.7 3.5 0.00 0.00 0.00 64 1012.1
20260509192748 71 248 0.9 3.5 0.00 0.00 0.00 65 1012.1
20260509191528 70 293 1.7 2.6 0.00 0.00 0.00 66 1012.1
20260509190313 71 338 2.6 5.2 0.00 0.00 0.00 64 1012.1
20260509185750 71 225 2.6 3.5 0.00 0.00 0.00 65 1012.1
20260509185114 71 225 0.9 2.6 0.00 0.00 0.00 63 1012.1
20260509184531 71 0 2.6 3.5 0.00 0.00 0.00 63 1012.1
20260509183936 71 45 3.5 6.1 0.00 0.00 0.00 63 1012.1
20260509183343 73 293 3.5 5.2 0.00 0.00 0.00 60 1012.1
20260509182727 74 338 2.6 4.3 0.00 0.00 0.00 59 1012.1
20260509182153 74 158 1.7 1.7 0.00 0.00 0.00 59 1012.1
20260509181515 73 203 1.7 2.6 0.00 0.00 0.00 63 1012.1
20260509180942 70 225 2.6 3.5 0.00 0.00 0.00 64 1012.1
20260509180315 72 90 0.9 3.5 0.00 0.00 0.00 62 1012.1
20260509175737 72 180 3.5 4.3 0.00 0.00 0.00 60 1012.1
20260509175152 72 338 2.6 4.3 0.00 0.00 0.00 63 1012.5
20260509174526 71 225 2.6 2.6 0.00 0.00 0.00 64 1012.5
20260509173311 70 0 1.7 3.5 0.00 0.00 0.00 64 1012.5
20260509172726 70 203 2.6 2.6 0.00 0.00 0.00 65 1012.5
20260509171510 69 203 4.3 6.1 0.00 0.00 0.00 63 1012.5
20260509170921 70 270 2.6 3.5 0.00 0.00 0.00 63 1012.8
20260509170323 70 315 4.3 5.2 0.00 0.00 0.00 63 1012.8
20260509165719 72 270 1.7 4.3 0.00 0.00 0.00 60 1012.8
20260509165133 72 203 1.7 2.6 0.00 0.00 0.00 62 1012.8
20260509164539 70 293 1.7 1.7 0.00 0.00 0.00 63 1012.8
20260509163934 69 23 1.7 4.3 0.00 0.00 0.00 65 1012.8
20260509162115 68 113 1.7 1.7 0.00 0.00 0.00 67 1012.8
20260509161540 68 203 1.7 1.7 0.00 0.00 0.00 67 1012.8
20260509160930 68 248 0.9 5.2 0.00 0.00 0.00 66 1012.5
20260509160345 69 293 0.9 4.3 0.00 0.00 0.00 65 1012.5
20260509155716 68 23 1.7 5.2 0.00 0.00 0.00 65 1012.8
20260509154540 68 270 4.3 4.3 0.00 0.00 0.00 66 1012.5
20260509153940 68 135 3.5 3.5 0.00 0.00 0.00 66 1012.5
20260509153324 68 158 1.7 5.2 0.00 0.00 0.00 67 1012.5
20260509152128 68 270 1.7 4.3 0.00 0.00 0.00 67 1012.5
20260509150915 67 338 2.6 4.3 0.00 0.00 0.00 68 1012.5
20260509150315 67 23 2.6 2.6 0.00 0.00 0.00 69 1012.5
20260509145741 67 338 2.6 2.6 0.00 0.00 0.00 69 1012.5
20260509145127 66 23 1.7 2.6 0.00 0.00 0.00 70 1012.8
20260509144508 66 225 0.0 0.0 0.00 0.00 0.00 71 1012.5
20260509143907 66 180 0.0 0.0 0.00 0.00 0.00 71 1012.8
20260509142747 67 270 0.0 0.0 0.00 0.00 0.00 70 1012.5
20260509141517 67 270 0.0 0.0 0.00 0.00 0.00 68 1012.8
20260509140924 66 23 0.0 0.0 0.00 0.00 0.00 69 1012.8
20260509140344 66 315 0.0 0.0 0.00 0.00 0.00 70 1012.8
20260509135710 64 0 0.0 0.0 0.00 0.00 0.00 72 1012.8
20260509135112 64 338 0.0 0.0 0.00 0.00 0.00 74 1012.5
20260509134545 63 338 0.0 0.0 0.00 0.00 0.00 74 1012.5
20260509133914 64 248 0.0 0.0 0.00 0.00 0.00 75 1012.5
20260509132743 62 180 0.0 0.0 0.00 0.00 0.00 77 1012.1
20260509132132 62 203 0.0 0.0 0.00 0.00 0.00 78 1012.1
20260509131511 60 180 0.0 0.0 0.00 0.00 0.00 83 1012.5
20260509130917 57 203 0.0 0.0 0.00 0.00 0.00 86 1012.5
20260509130311 57 203 0.0 1.7 0.00 0.00 0.00 85 1012.5
20260509125721 57 203 0.0 0.0 0.00 0.00 0.00 86 1012.5
20260509125123 56 225 0.0 0.0 0.00 0.00 0.00 86 1012.5
20260509123935 55 180 0.0 0.0 0.00 0.00 0.00 88 1012.5
20260509123351 56 203 0.0 0.0 0.00 0.00 0.00 87 1012.8
20260509122746 54 203 0.0 0.0 0.00 0.00 0.00 90 1012.5
20260509122142 54 225 0.0 0.0 0.00 0.00 0.00 89 1012.5
20260509121510 54 180 0.0 0.0 0.00 0.00 0.00 91 1012.5
20260509120914 53 203 0.0 0.0 0.00 0.00 0.00 93 1012.8
20260509120320 52 203 0.0 0.0 0.00 0.00 0.00 94 1012.8
20260509115739 51 203 0.0 0.0 0.00 0.00 0.00 98 1012.8
20260509115122 50 225 0.0 0.0 0.00 0.00 0.00 99 1012.8
20260509113926 49 225 0.0 0.0 0.00 0.00 0.00 99 1012.8
20260509113325 48 203 0.0 0.0 0.00 0.00 0.00 99 1012.8
20260509112131 48 180 1.7 1.7 0.00 0.00 0.00 99 1012.8
20260509110934 47 180 0.0 0.9 0.00 0.00 0.00 99 1012.8
20260509110313 47 203 0.0 0.0 0.00 0.00 0.00 99 1012.8
20260509104545 47 338 0.9 0.9 0.00 0.00 0.00 99 1012.8
20260509103940 47 315 0.0 0.0 0.00 0.00 0.00 99 1012.8
20260509103314 46 270 0.0 0.0 0.00 0.00 0.00 99 1012.8
20260509102735 47 270 0.0 0.0 0.00 0.00 0.00 99 1012.8
20260509102123 46 248 0.0 0.0 0.00 0.00 0.00 99 1012.8
20260509101514 47 23 0.0 0.0 0.00 0.00 0.00 99 1012.8
20260509100920 47 315 0.0 0.0 0.00 0.00 0.00 99 1012.8
20260509100325 47 270 0.0 0.0 0.00 0.00 0.00 99 1012.5
20260509095736 47 248 0.0 0.0 0.00 0.00 0.00 99 1012.5
20260509095147 47 315 0.0 0.0 0.00 0.00 0.00 99 1012.5
20260509094533 47 270 0.0 0.0 0.00 0.00 0.00 99 1012.8
20260509093330 47 225 0.0 0.0 0.00 0.00 0.00 99 1012.8
20260509092117 47 315 0.0 0.0 0.00 0.00 0.00 99 1012.8
20260509090945 47 270 0.0 0.0 0.00 0.00 0.00 99 1012.8
20260509090350 47 270 0.0 0.0 0.00 0.00 0.00 99 1012.8
20260509085712 47 270 0.0 0.0 0.00 0.00 0.00 99 1012.8
20260509085139 47 338 0.0 0.0 0.00 0.00 0.00 99 1012.8
20260509084533 47 270 0.0 0.0 0.00 0.00 0.00 99 1012.8
20260509083918 47 23 0.0 0.0 0.00 0.00 0.00 99 1013.2
20260509083337 47 270 0.0 0.0 0.00 0.00 0.00 99 1012.8
20260509082748 47 270 0.0 0.0 0.00 0.00 0.00 99 1012.8